UAE321 SEQM-TNCC

Flight info

Callsign UAE321
Flight time 2h 12m
Altitude 34000
Route ARNOK3A ARNOK UP533 BOKAN DCT GIR/N0483F350 DCT SOA W44 ZIP UW9 PIE UW1 ENPUT UW567 STB UG431 ALCOT G431 EMAPA EMAPA1B
Aircraft B77L/H-SDE1E2E3FGHIJ2J3J4J5M1RWXYZ/L

Departure

Time 2026-04-26 21:09
Airport Mariscal Sucre International Airport (SEQM)

Arrival

Time 2026-04-26 23:21
Airport Hato International Airport (TNCC)
Time Latitude Longitude Altitude Speed Heading
2026-04-26 20:48 -0.12962 -78.35759 7850 ft 0 kts 268°
2026-04-26 20:52 -0.12962 -78.35758 7850 ft 0 kts 268°
2026-04-26 20:57 -0.12962 -78.35757 7850 ft 0 kts 268°
2026-04-26 20:58 -0.12961 -78.35757 7850 ft 0 kts 268°
2026-04-26 20:58 -0.12962 -78.35757 7850 ft 0 kts 268°
2026-04-26 20:59 -0.12961 -78.35745 7850 ft 2 kts 268°
2026-04-26 21:00 -0.12961 -78.35732 7850 ft 2 kts 268°
2026-04-26 21:00 -0.12960 -78.35720 7850 ft 2 kts 268°
2026-04-26 21:00 -0.12960 -78.35708 7850 ft 2 kts 268°
2026-04-26 21:00 -0.12960 -78.35695 7850 ft 2 kts 268°
2026-04-26 21:01 -0.12959 -78.35683 7850 ft 2 kts 268°
2026-04-26 21:01 -0.12959 -78.35671 7850 ft 2 kts 268°
2026-04-26 21:01 -0.12958 -78.35658 7851 ft 2 kts 234°
2026-04-26 21:01 -0.12969 -78.35662 7851 ft 8 kts 207°
2026-04-26 21:02 -0.12990 -78.35669 7851 ft 0 kts 180°
2026-04-26 21:02 -0.12990 -78.35668 7851 ft 0 kts 180°
2026-04-26 21:03 -0.12990 -78.35669 7851 ft 0 kts 180°
2026-04-26 21:03 -0.12990 -78.35668 7851 ft 0 kts 180°
2026-04-26 21:03 -0.12990 -78.35669 7851 ft 0 kts 180°
2026-04-26 21:04 -0.13009 -78.35668 7851 ft 7 kts 179°
2026-04-26 21:04 -0.13078 -78.35668 7854 ft 13 kts 179°
2026-04-26 21:05 -0.13172 -78.35666 7861 ft 15 kts 179°
2026-04-26 21:05 -0.13192 -78.35666 7862 ft 4 kts 179°
2026-04-26 21:05 -0.13237 -78.35665 7864 ft 10 kts 178°
2026-04-26 21:05 -0.13327 -78.35655 7866 ft 16 kts 175°
2026-04-26 21:06 -0.13427 -78.35649 7869 ft 13 kts 176°
2026-04-26 21:06 -0.13526 -78.35641 7877 ft 15 kts 168°
2026-04-26 21:06 -0.13607 -78.35573 7889 ft 15 kts 156°
2026-04-26 21:06 -0.13719 -78.35557 7896 ft 18 kts 179°
2026-04-26 21:07 -0.13854 -78.35553 7900 ft 21 kts 178°
2026-04-26 21:07 -0.14014 -78.35547 7912 ft 24 kts 178°
2026-04-26 21:07 -0.14160 -78.35542 7921 ft 20 kts 178°
2026-04-26 21:07 -0.14256 -78.35459 7922 ft 20 kts 95°
2026-04-26 21:08 -0.14214 -78.35372 7922 ft 10 kts 18°
2026-04-26 21:08 -0.14172 -78.35373 7919 ft 1 kts 357°
2026-04-26 21:08 -0.14159 -78.35373 7918 ft 9 kts 357°
2026-04-26 21:08 -0.13822 -78.35389 7902 ft 90 kts 358°
2026-04-26 21:09 -0.12919 -78.35425 7873 ft 170 kts 358°
2026-04-26 21:09 -0.11508 -78.35481 7847 ft 228 kts 358°
2026-04-26 21:09 -0.09860 -78.35556 8670 ft 241 kts 357°
2026-04-26 21:09 -0.08206 -78.35756 9967 ft 242 kts 346°
2026-04-26 21:10 -0.06603 -78.36410 10771 ft 257 kts 329°
2026-04-26 21:10 -0.05069 -78.37322 11614 ft 250 kts 330°
2026-04-26 21:10 -0.03560 -78.38113 12362 ft 249 kts 341°
2026-04-26 21:10 -0.01862 -78.38638 12653 ft 260 kts 346°
2026-04-26 21:11 -0.00105 -78.39133 12988 ft 265 kts 344°
2026-04-26 21:11 0.01657 -78.39657 13398 ft 274 kts 345°
2026-04-26 21:11 0.03536 -78.40231 13746 ft 282 kts 343°
2026-04-26 21:11 0.05370 -78.40869 14532 ft 278 kts 341°
2026-04-26 21:12 0.07236 -78.41539 14839 ft 292 kts 345°
2026-04-26 21:12 0.09226 -78.42017 15330 ft 296 kts 350°
2026-04-26 21:12 0.11258 -78.42407 15878 ft 299 kts 351°
2026-04-26 21:12 0.13346 -78.42638 16390 ft 306 kts
2026-04-26 21:13 0.15514 -78.42473 16622 ft 322 kts 11°
2026-04-26 21:13 0.17630 -78.41650 16791 ft 334 kts 38°
2026-04-26 21:13 0.19376 -78.40082 17140 ft 344 kts 45°
2026-04-26 21:13 0.21111 -78.38324 17228 ft 367 kts 46°
2026-04-26 21:14 0.22922 -78.36476 17687 ft 376 kts 45°
2026-04-26 21:14 0.24780 -78.34626 18419 ft 378 kts 45°
2026-04-26 21:14 0.26677 -78.32785 19083 ft 381 kts 44°
2026-04-26 21:14 0.28603 -78.30952 19678 ft 384 kts 44°
2026-04-26 21:15 0.30556 -78.29117 20265 ft 387 kts 44°
2026-04-26 21:15 0.32540 -78.27265 20865 ft 391 kts 44°
2026-04-26 21:15 0.34509 -78.25430 21466 ft 394 kts 43°
2026-04-26 21:15 0.36530 -78.23551 22095 ft 398 kts 43°
2026-04-26 21:16 0.38558 -78.21665 22695 ft 400 kts 44°
2026-04-26 21:16 0.40602 -78.19753 23263 ft 404 kts 44°
2026-04-26 21:16 0.42672 -78.17829 23775 ft 409 kts 43°
2026-04-26 21:16 0.44766 -78.15885 24252 ft 412 kts 44°
2026-04-26 21:17 0.46868 -78.13928 24754 ft 414 kts 44°
2026-04-26 21:17 0.48979 -78.11962 25252 ft 416 kts 44°
2026-04-26 21:17 0.51146 -78.10025 25763 ft 420 kts 40°
2026-04-26 21:17 0.53469 -78.08232 26231 ft 424 kts 37°
2026-04-26 21:18 0.55879 -78.06496 26719 ft 427 kts 36°
2026-04-26 21:18 0.58313 -78.04766 27218 ft 430 kts 36°
2026-04-26 21:18 0.60751 -78.03014 27696 ft 433 kts 37°
2026-04-26 21:18 0.63187 -78.01238 28160 ft 436 kts 37°
2026-04-26 21:19 0.65604 -77.99455 28627 ft 439 kts 37°
2026-04-26 21:19 0.68068 -77.97625 29108 ft 443 kts 37°
2026-04-26 21:19 0.70552 -77.95783 29577 ft 446 kts 37°
2026-04-26 21:19 0.73056 -77.93938 30126 ft 448 kts 37°
2026-04-26 21:20 0.75564 -77.92072 30525 ft 451 kts 38°
2026-04-26 21:20 0.78091 -77.90189 30924 ft 453 kts 37°
2026-04-26 21:20 0.80631 -77.88300 31310 ft 456 kts 38°
2026-04-26 21:20 0.83106 -77.86301 31687 ft 458 kts 41°
2026-04-26 21:21 0.85507 -77.84197 32000 ft 462 kts 43°
2026-04-26 21:21 0.87904 -77.82034 32348 ft 464 kts 43°
2026-04-26 21:21 0.90304 -77.79855 32811 ft 467 kts 43°
2026-04-26 21:21 0.92722 -77.77666 33143 ft 470 kts 42°
2026-04-26 21:22 0.95159 -77.75470 33472 ft 473 kts 42°
2026-04-26 21:22 0.97616 -77.73265 33780 ft 475 kts 42°
2026-04-26 21:22 1.00082 -77.71062 34084 ft 478 kts 41°
2026-04-26 21:23 1.05092 -77.66602 34257 ft 486 kts 41°
2026-04-26 21:23 1.07586 -77.64385 34256 ft 485 kts 41°
2026-04-26 21:23 1.12596 -77.59934 34214 ft 479 kts 41°
2026-04-26 21:24 1.17601 -77.55492 34183 ft 482 kts 42°
2026-04-26 21:24 1.22606 -77.51034 34137 ft 483 kts 41°
2026-04-26 21:25 1.27642 -77.46558 34132 ft 485 kts 41°
2026-04-26 21:25 1.32689 -77.42072 34116 ft 486 kts 42°
2026-04-26 21:26 1.37701 -77.37615 34100 ft 485 kts 41°
2026-04-26 21:26 1.42742 -77.33132 34111 ft 484 kts 42°
2026-04-26 21:27 1.47769 -77.28662 34116 ft 483 kts 42°
2026-04-26 21:27 1.52796 -77.24191 34065 ft 484 kts 41°
2026-04-26 21:28 1.57834 -77.19702 34091 ft 486 kts 41°
2026-04-26 21:28 1.62891 -77.15209 34092 ft 487 kts 41°
2026-04-26 21:29 1.67975 -77.10695 34051 ft 488 kts 41°
2026-04-26 21:29 1.73046 -77.06183 34071 ft 487 kts 41°
2026-04-26 21:30 1.78075 -77.01706 34065 ft 486 kts 41°
2026-04-26 21:30 1.82211 -76.98025 34038 ft 485 kts 41°
2026-04-26 21:31 1.88067 -76.92812 34055 ft 485 kts 42°
2026-04-26 21:31 1.93083 -76.88317 34060 ft 485 kts 42°
2026-04-26 21:32 1.98141 -76.83839 34038 ft 485 kts 41°
2026-04-26 21:32 2.03173 -76.79373 34032 ft 484 kts 42°
2026-04-26 21:33 2.08207 -76.74895 34047 ft 483 kts 42°
2026-04-26 21:33 2.12381 -76.71178 34046 ft 483 kts 42°
2026-04-26 21:34 2.17389 -76.66717 34053 ft 482 kts 42°
2026-04-26 21:34 2.22405 -76.62250 34075 ft 482 kts 42°
2026-04-26 21:35 2.27421 -76.57780 34076 ft 484 kts 42°
2026-04-26 21:35 2.32466 -76.53293 34077 ft 486 kts 41°
2026-04-26 21:36 2.37494 -76.48803 34085 ft 486 kts 42°
2026-04-26 21:36 2.42578 -76.44274 34072 ft 487 kts 41°
2026-04-26 21:37 2.47606 -76.39812 34069 ft 486 kts 42°
2026-04-26 21:37 2.52643 -76.35325 34049 ft 484 kts 42°
2026-04-26 21:38 2.57664 -76.30848 34033 ft 482 kts 42°
2026-04-26 21:38 2.62679 -76.26378 34036 ft 484 kts 42°
2026-04-26 21:39 2.67744 -76.21862 34024 ft 491 kts 42°
2026-04-26 21:39 2.72855 -76.17297 34028 ft 492 kts 42°
2026-04-26 21:40 2.77949 -76.12752 34029 ft 487 kts 43°
2026-04-26 21:40 2.82986 -76.08263 34019 ft 485 kts 42°
2026-04-26 21:41 2.88016 -76.03787 34026 ft 485 kts 42°
2026-04-26 21:41 2.92946 -75.99404 34019 ft 486 kts 42°
2026-04-26 21:42 2.97997 -75.94897 34028 ft 486 kts 42°
2026-04-26 21:42 3.03062 -75.90385 34010 ft 487 kts 42°
2026-04-26 21:43 3.08138 -75.85870 34015 ft 489 kts 42°
2026-04-26 21:43 3.13225 -75.81321 34006 ft 490 kts 42°
2026-04-26 21:44 3.18315 -75.76775 33967 ft 489 kts 43°
2026-04-26 21:44 3.23353 -75.72272 33960 ft 487 kts 43°
2026-04-26 21:45 3.28407 -75.67760 33960 ft 486 kts 43°
2026-04-26 21:45 3.33441 -75.63269 33908 ft 484 kts 43°
2026-04-26 21:46 3.38467 -75.58781 33905 ft 483 kts 43°
2026-04-26 21:46 3.43476 -75.54304 33926 ft 482 kts 43°
2026-04-26 21:47 3.48492 -75.49826 33930 ft 483 kts 43°
2026-04-26 21:47 3.53515 -75.45345 33887 ft 485 kts 43°
2026-04-26 21:48 3.58556 -75.40842 33878 ft 485 kts 42°
2026-04-26 21:48 3.63557 -75.36365 33883 ft 485 kts 43°
2026-04-26 21:49 3.68587 -75.31873 33866 ft 484 kts 43°
2026-04-26 21:49 3.73623 -75.27376 33863 ft 485 kts 43°
2026-04-26 21:50 3.78657 -75.22878 33866 ft 486 kts 43°
2026-04-26 21:50 3.83707 -75.18361 33863 ft 487 kts 43°
2026-04-26 21:51 3.88761 -75.13840 33862 ft 488 kts 43°
2026-04-26 21:51 3.93830 -75.09307 33861 ft 488 kts 43°
2026-04-26 21:52 3.98899 -75.04771 33866 ft 488 kts 42°
2026-04-26 21:52 4.03955 -75.00238 33854 ft 488 kts 42°
2026-04-26 21:53 4.08927 -74.95800 33862 ft 489 kts 42°
2026-04-26 21:53 4.14016 -74.91255 33869 ft 490 kts 42°
2026-04-26 21:54 4.19053 -74.86705 33877 ft 491 kts 45°
2026-04-26 21:54 4.21295 -74.84129 33870 ft 490 kts 56°
2026-04-26 21:54 4.23182 -74.81297 33758 ft 490 kts 58°
2026-04-26 21:55 4.26922 -74.75576 33752 ft 491 kts 57°
2026-04-26 21:55 4.30768 -74.69906 33754 ft 492 kts 56°
2026-04-26 21:56 4.34675 -74.64273 33786 ft 492 kts 56°
2026-04-26 21:56 4.38582 -74.58654 33839 ft 491 kts 56°
2026-04-26 21:57 4.42483 -74.53034 33882 ft 490 kts 56°
2026-04-26 21:57 4.46363 -74.47418 33967 ft 490 kts 56°
2026-04-26 21:58 4.50257 -74.41810 33990 ft 489 kts 56°
2026-04-26 21:58 4.54113 -74.36241 34074 ft 489 kts 56°
2026-04-26 21:59 4.57985 -74.30646 34167 ft 487 kts 56°
2026-04-26 21:59 4.62311 -74.25471 34242 ft 486 kts 39°
2026-04-26 22:00 4.68037 -74.21907 34317 ft 484 kts 32°
2026-04-26 22:00 4.73659 -74.18192 34295 ft 485 kts 35°
2026-04-26 22:01 4.79204 -74.14313 34303 ft 487 kts 36°
2026-04-26 22:01 4.84794 -74.10436 34295 ft 489 kts 35°
2026-04-26 22:02 4.89468 -74.07208 34302 ft 492 kts 35°
2026-04-26 22:02 4.93238 -74.04605 34072 ft 493 kts 35°
2026-04-26 22:02 4.96068 -74.02653 34073 ft 494 kts 35°
2026-04-26 22:03 5.01599 -73.98846 34066 ft 493 kts 34°
2026-04-26 22:03 5.07562 -73.95528 34070 ft 487 kts 25°
2026-04-26 22:04 5.13739 -73.92791 34073 ft 485 kts 24°
2026-04-26 22:04 5.19942 -73.90004 34082 ft 491 kts 25°
2026-04-26 22:05 5.26138 -73.87092 34081 ft 492 kts 26°
2026-04-26 22:05 5.32282 -73.84145 34063 ft 492 kts 26°
2026-04-26 22:06 5.38460 -73.81177 34065 ft 492 kts 26°
2026-04-26 22:06 5.44621 -73.78224 34060 ft 490 kts 26°
2026-04-26 22:07 5.50772 -73.75280 34068 ft 489 kts 26°
2026-04-26 22:07 5.56906 -73.72343 34053 ft 488 kts 26°
2026-04-26 22:08 5.63037 -73.69406 34059 ft 488 kts 26°
2026-04-26 22:08 5.69175 -73.66466 34057 ft 489 kts 26°
2026-04-26 22:09 5.75308 -73.63528 34056 ft 488 kts 26°
2026-04-26 22:09 5.81444 -73.60587 34053 ft 488 kts 26°
2026-04-26 22:10 5.87570 -73.57650 34024 ft 489 kts 26°
2026-04-26 22:10 5.93678 -73.54721 34028 ft 490 kts 26°
2026-04-26 22:11 5.99879 -73.51747 33995 ft 491 kts 26°
2026-04-26 22:11 6.05993 -73.48814 34003 ft 491 kts 26°
2026-04-26 22:12 6.12162 -73.45853 34007 ft 492 kts 26°
2026-04-26 22:12 6.18356 -73.42881 33976 ft 493 kts 26°
2026-04-26 22:13 6.24539 -73.39912 33971 ft 493 kts 26°
2026-04-26 22:13 6.30719 -73.36944 33963 ft 489 kts 26°
2026-04-26 22:14 6.33742 -73.35493 33950 ft 474 kts 26°
2026-04-26 22:14 6.36678 -73.34084 33951 ft 462 kts 26°
2026-04-26 22:14 6.42460 -73.31305 33947 ft 460 kts 26°
2026-04-26 22:15 6.48240 -73.28525 33962 ft 460 kts 25°
2026-04-26 22:15 6.53989 -73.25785 33951 ft 459 kts 26°
2026-04-26 22:16 6.59739 -73.22996 33968 ft 458 kts 26°
2026-04-26 22:16 6.65496 -73.20222 33962 ft 459 kts 26°
2026-04-26 22:17 6.71269 -73.17451 33954 ft 460 kts 26°
2026-04-26 22:17 6.77043 -73.14671 33957 ft 460 kts 26°
2026-04-26 22:18 6.82826 -73.11886 33957 ft 461 kts 26°
2026-04-26 22:18 6.88607 -73.09100 33958 ft 461 kts 27°
2026-04-26 22:19 6.94249 -73.06106 33994 ft 461 kts 29°
2026-04-26 22:19 6.99858 -73.02959 34009 ft 461 kts 30°
2026-04-26 22:20 7.04514 -73.00359 34008 ft 461 kts 29°
2026-04-26 22:20 7.10981 -72.96786 34007 ft 460 kts 29°
2026-04-26 22:21 7.16608 -72.93690 34042 ft 459 kts 30°
2026-04-26 22:21 7.21263 -72.91127 34034 ft 457 kts 29°
2026-04-26 22:22 7.26832 -72.88076 34062 ft 455 kts 29°
2026-04-26 22:22 7.32393 -72.85015 34055 ft 455 kts 30°
2026-04-26 22:23 7.37946 -72.81948 34054 ft 456 kts 30°
2026-04-26 22:23 7.43526 -72.78869 34055 ft 457 kts 30°
2026-04-26 22:24 7.49092 -72.75801 34054 ft 459 kts 30°
2026-04-26 22:24 7.54687 -72.72682 34020 ft 460 kts 30°
2026-04-26 22:25 7.60310 -72.69597 34025 ft 461 kts 29°
2026-04-26 22:25 7.65939 -72.66482 34024 ft 461 kts 30°
2026-04-26 22:26 7.71580 -72.63388 33992 ft 461 kts 30°
2026-04-26 22:26 7.77226 -72.60289 33939 ft 462 kts 30°
2026-04-26 22:27 7.82860 -72.57173 33914 ft 461 kts 31°
2026-04-26 22:27 7.88484 -72.54064 33909 ft 461 kts 31°
2026-04-26 22:28 7.94106 -72.50961 33915 ft 461 kts 30°
2026-04-26 22:28 7.99781 -72.48027 33920 ft 461 kts 29°
2026-04-26 22:29 8.05518 -72.45130 33918 ft 463 kts 29°
2026-04-26 22:29 8.11277 -72.42189 33913 ft 463 kts 29°
2026-04-26 22:30 8.17026 -72.39236 33914 ft 463 kts 29°
2026-04-26 22:30 8.22753 -72.36265 33916 ft 463 kts 31°
2026-04-26 22:31 8.28383 -72.33122 33892 ft 462 kts 32°
2026-04-26 22:31 8.33949 -72.29965 33890 ft 462 kts 32°
2026-04-26 22:32 8.39564 -72.26803 33875 ft 462 kts 31°
2026-04-26 22:32 8.45195 -72.23651 33882 ft 462 kts 31°
2026-04-26 22:33 8.53645 -72.18924 33866 ft 463 kts 31°
2026-04-26 22:34 8.59291 -72.15763 33868 ft 464 kts 31°
2026-04-26 22:34 8.64943 -72.12597 33866 ft 464 kts 31°
2026-04-26 22:35 8.70606 -72.09424 33857 ft 465 kts 31°
2026-04-26 22:35 8.76258 -72.06256 33854 ft 465 kts 31°
2026-04-26 22:36 8.81916 -72.03084 33855 ft 465 kts 31°
2026-04-26 22:36 8.87520 -71.99940 33855 ft 464 kts 31°
2026-04-26 22:37 8.93079 -71.96820 33853 ft 464 kts 31°
2026-04-26 22:37 8.98690 -71.93589 33852 ft 462 kts 37°
2026-04-26 22:38 9.03492 -71.89363 33836 ft 455 kts 46°
2026-04-26 22:38 9.05756 -71.87182 33444 ft 453 kts 46°
2026-04-26 22:38 9.08041 -71.84999 32958 ft 450 kts 46°
2026-04-26 22:38 9.10324 -71.82851 32502 ft 448 kts 45°
2026-04-26 22:39 9.12614 -71.80723 32042 ft 445 kts 45°
2026-04-26 22:39 9.14899 -71.78618 31620 ft 442 kts 44°
2026-04-26 22:39 9.17167 -71.76539 31220 ft 439 kts 44°
2026-04-26 22:39 9.19424 -71.74473 30805 ft 436 kts 44°
2026-04-26 22:40 9.21665 -71.72422 30406 ft 433 kts 44°
2026-04-26 22:40 9.23890 -71.70384 30022 ft 429 kts 44°
2026-04-26 22:40 9.26106 -71.68354 29883 ft 430 kts 44°
2026-04-26 22:41 9.30531 -71.64295 29868 ft 429 kts 44°
2026-04-26 22:41 9.34957 -71.60234 29865 ft 429 kts 44°
2026-04-26 22:42 9.39356 -71.56195 29868 ft 429 kts 44°
2026-04-26 22:42 9.43780 -71.52133 29870 ft 430 kts 44°
2026-04-26 22:43 9.48216 -71.48059 29864 ft 431 kts 44°
2026-04-26 22:43 9.52653 -71.43982 29869 ft 431 kts 44°
2026-04-26 22:44 9.57097 -71.39897 29766 ft 429 kts 44°
2026-04-26 22:44 9.59301 -71.37871 29346 ft 426 kts 44°
2026-04-26 22:44 9.61493 -71.35856 28878 ft 423 kts 43°
2026-04-26 22:44 9.63668 -71.33855 28440 ft 421 kts 43°
2026-04-26 22:45 9.65827 -71.31869 28014 ft 417 kts 43°
2026-04-26 22:45 9.67965 -71.29901 27611 ft 415 kts 43°
2026-04-26 22:45 9.70096 -71.27937 27105 ft 413 kts 43°
2026-04-26 22:45 9.72198 -71.26014 26650 ft 411 kts 43°
2026-04-26 22:46 9.74312 -71.24068 26259 ft 409 kts 43°
2026-04-26 22:46 9.76407 -71.22132 25887 ft 406 kts 43°
2026-04-26 22:46 9.78488 -71.20212 25520 ft 403 kts 43°
2026-04-26 22:46 9.80552 -71.18309 25145 ft 400 kts 43°
2026-04-26 22:47 9.82615 -71.16411 24768 ft 398 kts 43°
2026-04-26 22:47 9.84655 -71.14533 24412 ft 396 kts 43°
2026-04-26 22:47 9.86691 -71.12659 24059 ft 394 kts 43°
2026-04-26 22:47 9.88714 -71.10796 23701 ft 392 kts 43°
2026-04-26 22:48 9.90727 -71.08942 23320 ft 390 kts 43°
2026-04-26 22:48 9.92728 -71.07098 22923 ft 387 kts 43°
2026-04-26 22:48 9.94714 -71.05267 22527 ft 385 kts 43°
2026-04-26 22:48 9.96688 -71.03448 22155 ft 382 kts 43°
2026-04-26 22:49 9.98647 -71.01641 21814 ft 379 kts 43°
2026-04-26 22:49 10.00535 -70.99899 21442 ft 377 kts 43°
2026-04-26 22:49 10.02450 -70.98133 21058 ft 375 kts 43°
2026-04-26 22:49 10.04353 -70.96377 20624 ft 375 kts 43°
2026-04-26 22:50 10.06292 -70.94589 20298 ft 370 kts 43°
2026-04-26 22:50 10.08170 -70.92855 19930 ft 368 kts 42°
2026-04-26 22:50 10.10057 -70.91112 19596 ft 365 kts 43°
2026-04-26 22:50 10.11924 -70.89388 19233 ft 363 kts 43°
2026-04-26 22:51 10.13785 -70.87670 18943 ft 358 kts 43°
2026-04-26 22:51 10.15615 -70.85975 18581 ft 356 kts 43°
2026-04-26 22:51 10.17445 -70.84283 18218 ft 355 kts 43°
2026-04-26 22:51 10.19269 -70.82602 17843 ft 351 kts 43°
2026-04-26 22:52 10.21052 -70.80955 17801 ft 339 kts 43°
2026-04-26 22:52 10.22821 -70.79318 17888 ft 355 kts 43°
2026-04-26 22:52 10.24709 -70.77569 17929 ft 380 kts 43°
2026-04-26 22:52 10.26723 -70.75700 17939 ft 401 kts 43°
2026-04-26 22:53 10.28777 -70.73797 17926 ft 400 kts 43°
2026-04-26 22:53 10.30847 -70.71881 17931 ft 403 kts 43°
2026-04-26 22:53 10.32897 -70.69983 17935 ft 406 kts 43°
2026-04-26 22:53 10.34996 -70.68043 17930 ft 409 kts 42°
2026-04-26 22:54 10.37102 -70.66099 17920 ft 408 kts 43°
2026-04-26 22:54 10.39194 -70.64168 17913 ft 404 kts 43°
2026-04-26 22:54 10.41268 -70.62255 17913 ft 402 kts 42°
2026-04-26 22:54 10.43338 -70.60345 17935 ft 402 kts 43°
2026-04-26 22:55 10.45411 -70.58430 17938 ft 403 kts 43°
2026-04-26 22:55 10.47493 -70.56506 17937 ft 404 kts 42°
2026-04-26 22:55 10.49570 -70.54586 17788 ft 402 kts 43°
2026-04-26 22:55 10.51629 -70.52682 17405 ft 398 kts 43°
2026-04-26 22:56 10.53666 -70.50799 16994 ft 394 kts 43°
2026-04-26 22:56 10.55676 -70.48939 16553 ft 389 kts 43°
2026-04-26 22:56 10.57676 -70.47089 16086 ft 386 kts 43°
2026-04-26 22:56 10.59655 -70.45258 15601 ft 384 kts 43°
2026-04-26 22:57 10.61622 -70.43437 15162 ft 380 kts 44°
2026-04-26 22:57 10.63568 -70.41636 14721 ft 378 kts 43°
2026-04-26 22:57 10.65505 -70.39841 14263 ft 375 kts 44°
2026-04-26 22:57 10.67388 -70.38071 13830 ft 372 kts 43°
2026-04-26 22:58 10.69280 -70.36286 13365 ft 369 kts 44°
2026-04-26 22:58 10.71153 -70.34515 12873 ft 366 kts 43°
2026-04-26 22:58 10.73020 -70.32769 12389 ft 364 kts 43°
2026-04-26 22:58 10.74831 -70.31100 12769 ft 328 kts 42°
2026-04-26 22:59 10.76509 -70.29576 12444 ft 324 kts 43°
2026-04-26 22:59 10.78200 -70.28008 11648 ft 336 kts 44°
2026-04-26 22:59 10.79948 -70.26374 10939 ft 343 kts 43°
2026-04-26 22:59 10.81711 -70.24728 10448 ft 344 kts 43°
2026-04-26 23:00 10.83468 -70.23083 10146 ft 342 kts 44°
2026-04-26 23:00 10.85237 -70.21429 10005 ft 356 kts 43°
2026-04-26 23:00 10.87124 -70.19678 9952 ft 372 kts 43°
2026-04-26 23:00 10.89029 -70.17907 9939 ft 371 kts 43°
2026-04-26 23:01 10.90918 -70.16147 9941 ft 374 kts 43°
2026-04-26 23:01 10.92852 -70.14354 9941 ft 377 kts 43°
2026-04-26 23:01 10.94785 -70.12556 9932 ft 377 kts 43°
2026-04-26 23:01 10.96716 -70.10750 9930 ft 377 kts 43°
2026-04-26 23:02 10.98651 -70.08945 9922 ft 376 kts 43°
2026-04-26 23:02 11.00576 -70.07150 9920 ft 376 kts 44°
2026-04-26 23:02 11.02501 -70.05355 9929 ft 376 kts 44°
2026-04-26 23:02 11.04433 -70.03558 9931 ft 376 kts 43°
2026-04-26 23:03 11.06366 -70.01759 9914 ft 376 kts 44°
2026-04-26 23:03 11.08282 -69.99975 9919 ft 376 kts 43°
2026-04-26 23:03 11.10161 -69.98228 9918 ft 376 kts 43°
2026-04-26 23:03 11.12097 -69.96428 9920 ft 377 kts 43°
2026-04-26 23:04 11.14030 -69.94628 9914 ft 377 kts 43°
2026-04-26 23:04 11.15964 -69.92826 9924 ft 376 kts 43°
2026-04-26 23:04 11.17876 -69.91055 9931 ft 376 kts 43°
2026-04-26 23:04 11.19828 -69.89241 9925 ft 376 kts 43°
2026-04-26 23:05 11.21735 -69.87465 9929 ft 377 kts 44°
2026-04-26 23:05 11.23667 -69.85659 9916 ft 377 kts 44°
2026-04-26 23:05 11.25603 -69.83853 9944 ft 377 kts 44°
2026-04-26 23:05 11.27538 -69.82046 9947 ft 377 kts 44°
2026-04-26 23:06 11.29472 -69.80246 9932 ft 377 kts 43°
2026-04-26 23:06 11.31411 -69.78441 9931 ft 377 kts 44°
2026-04-26 23:06 11.33351 -69.76634 9929 ft 377 kts 44°
2026-04-26 23:06 11.35285 -69.74832 9938 ft 377 kts 44°
2026-04-26 23:07 11.37220 -69.73021 9938 ft 378 kts 44°
2026-04-26 23:07 11.38528 -69.71800 9941 ft 378 kts 44°
2026-04-26 23:07 11.41099 -69.69404 9941 ft 379 kts 44°
2026-04-26 23:07 11.43076 -69.67623 9937 ft 379 kts 43°
2026-04-26 23:08 11.45088 -69.65878 9944 ft 379 kts 42°
2026-04-26 23:08 11.47111 -69.64145 9947 ft 379 kts 42°
2026-04-26 23:08 11.49132 -69.62413 9940 ft 379 kts 42°
2026-04-26 23:08 11.51154 -69.60679 9931 ft 380 kts 42°
2026-04-26 23:09 11.53174 -69.58941 9932 ft 380 kts 42°
2026-04-26 23:09 11.55186 -69.57200 9933 ft 379 kts 41°
2026-04-26 23:09 11.57196 -69.55463 9938 ft 379 kts 42°
2026-04-26 23:09 11.59204 -69.53727 9933 ft 378 kts 41°
2026-04-26 23:10 11.61179 -69.52007 9926 ft 378 kts 42°
2026-04-26 23:10 11.63177 -69.50269 9923 ft 378 kts 41°
2026-04-26 23:10 11.65179 -69.48528 9918 ft 378 kts 43°
2026-04-26 23:10 11.67183 -69.46782 9909 ft 378 kts 43°
2026-04-26 23:11 11.69191 -69.45048 9915 ft 378 kts 43°
2026-04-26 23:11 11.71202 -69.43310 9913 ft 378 kts 41°
2026-04-26 23:11 11.73205 -69.41570 9913 ft 378 kts 43°
2026-04-26 23:11 11.75206 -69.39827 9907 ft 378 kts 41°
2026-04-26 23:12 11.76559 -69.38652 9914 ft 378 kts 42°
2026-04-26 23:12 11.78535 -69.36934 9916 ft 378 kts 43°
2026-04-26 23:12 11.80530 -69.35193 9916 ft 378 kts 43°
2026-04-26 23:12 11.83212 -69.32867 9917 ft 379 kts 42°
2026-04-26 23:13 11.84543 -69.31714 9914 ft 379 kts 43°
2026-04-26 23:13 11.86555 -69.29961 9902 ft 379 kts 43°
2026-04-26 23:13 11.88557 -69.28213 9902 ft 379 kts 43°
2026-04-26 23:13 11.90564 -69.26463 9904 ft 379 kts 42°
2026-04-26 23:14 11.92573 -69.24733 9896 ft 378 kts 42°
2026-04-26 23:14 11.94605 -69.23054 9547 ft 371 kts 37°
2026-04-26 23:14 11.96902 -69.21901 8871 ft 367 kts 18°
2026-04-26 23:14 11.99374 -69.21247 8168 ft 367 kts 16°
2026-04-26 23:15 12.01839 -69.20574 7532 ft 367 kts 17°
2026-04-26 23:15 12.04292 -69.19860 6977 ft 365 kts 18°
2026-04-26 23:15 12.06722 -69.19136 6445 ft 363 kts 18°
2026-04-26 23:15 12.09137 -69.18413 5910 ft 360 kts 18°
2026-04-26 23:16 12.11534 -69.17697 5372 ft 352 kts 18°
2026-04-26 23:16 12.13848 -69.17007 4468 ft 344 kts 19°
2026-04-26 23:16 12.16106 -69.16331 3866 ft 328 kts 19°
2026-04-26 23:16 12.18216 -69.15708 3675 ft 302 kts 18°
2026-04-26 23:17 12.20086 -69.14972 3481 ft 274 kts 36°
2026-04-26 23:17 12.21322 -69.13656 3291 ft 243 kts 66°
2026-04-26 23:17 12.21678 -69.12096 3109 ft 214 kts 87°
2026-04-26 23:17 12.21705 -69.10659 2825 ft 198 kts 94°
2026-04-26 23:18 12.21588 -69.09273 2590 ft 189 kts 95°
2026-04-26 23:18 12.21407 -69.08021 2465 ft 173 kts 99°
2026-04-26 23:18 12.21164 -69.06794 2427 ft 173 kts 101°
2026-04-26 23:18 12.20895 -69.05630 2140 ft 165 kts 107°
2026-04-26 23:19 12.20568 -69.04526 1687 ft 155 kts 101°
2026-04-26 23:19 12.20383 -69.03531 1418 ft 129 kts 96°
2026-04-26 23:19 12.20274 -69.02621 1182 ft 146 kts 96°
2026-04-26 23:19 12.20178 -69.01626 1081 ft 139 kts 101°
2026-04-26 23:20 12.19947 -69.00685 990 ft 136 kts 105°
2026-04-26 23:20 12.19708 -68.99703 841 ft 160 kts 99°
2026-04-26 23:20 12.19486 -68.98615 591 ft 152 kts 102°
2026-04-26 23:20 12.19235 -68.97591 239 ft 155 kts 99°
2026-04-26 23:21 12.19004 -68.96514 56 ft 144 kts 101°
2026-04-26 23:21 12.18859 -68.95781 31 ft 57 kts 101°
2026-04-26 23:21 12.18809 -68.95520 30 ft 17 kts 105°
2026-04-26 23:21 12.18758 -68.95413 31 ft 17 kts 141°
2026-04-26 23:22 12.18646 -68.95422 32 ft 17 kts 197°
2026-04-26 23:22 12.18543 -68.95442 33 ft 14 kts 164°
2026-04-26 23:22 12.18505 -68.95358 33 ft 14 kts 102°
2026-04-26 23:22 12.18498 -68.95332 33 ft 0 kts 105°
2026-04-26 23:23 12.18498 -68.95333 33 ft 0 kts 105°